Regional Weather Roundup
Issued by NWS

Home | Current Version | Previous Version | Graphics & Text | Print | Product List | Glossary On
Versions: 1 2 3 4 5 6 7 8 9 10 11 12 13 14 15 16 17 18 19 20 21 22 23 24 25 26 27 28 29 30 31 32 33 34 35 36 37 38 39 40 41 42 43 44 45 46 47 48 49 50
000
ASUS44 KMEG 201410
RWRTN
TENNESSEE HOURLY STATE WEATHER ROUNDUP
NATIONAL WEATHER SERVICE MEMPHIS TN
900 AM CDT SUN AUG 20 2017

TNZ002-004-019-021-049-052-054-088>092-201500-
WEST TENNESSEE

CITY           SKY/WX    TMP DP  RH WIND       PRES   REMARKS
MEMPHIS INTL   MOSUNNY   85  77  77 SW6       30.06R HX  95
NWS MEMPHIS      N/A     84 N/A N/A MISG        N/A
JACKSON        SUNNY     83  76  79 CALM      30.07R HX  91
DYERSBURG      SUNNY     82  76  81 SE5       30.08R
SOMERVILLE     SUNNY     84  77  79 CALM      30.06R HX  94
COVINGTON      SUNNY     82  77  83 CALM      30.06R HX  91
UNION CITY     SUNNY     79  73  83 CALM      30.07R
BOLIVAR        SUNNY     82  75  78 CALM      30.07R
PARIS          SUNNY     79  73  83 CALM      30.08R
HUNTINGDON     SUNNY     79  73  83 CALM      30.08R
LEXINGTON      SUNNY     79  75  89 CALM      30.08R
SELMER         SUNNY     82  75  78 CALM      30.08R
SAVANNAH       SUNNY     81  75  83 CALM      30.07R
$$

TNZ008-025-027-028-033-062-065-066-201500-
NORTH MIDDLE TENNESSEE

CITY           SKY/WX    TMP DP  RH WIND       PRES   REMARKS
NASHVILLE      MOSUNNY   82  71  69 CALM      30.10R
PORTLAND       SUNNY     81  73  78 CALM      30.09S
CLARKSVILLE    SUNNY     79  72  79 SE3       30.08S
SMYRNA         MOSUNNY   81  72  74 VRB3      30.11R
COOKEVILLE     SUNNY     79  70  73 CALM      30.12S
GALLATIN       SUNNY     79  72  78 CALM      30.12S
CROSSVILLE     SUNNY     78  67  68 CALM      30.18R
$$

TNZ061-075-076-078-094-096-097-201500-
SOUTH MIDDLE TENNESSEE

CITY           SKY/WX    TMP DP  RH WIND       PRES   REMARKS
FAYETTEVILLE   SUNNY     79  72  78 SE3       30.11R
TULLAHOMA      MOSUNNY   79  70  73 S3        30.13R
WINCHESTER     PTSUNNY   75  72  88 E3        30.12R
MCMINNVILLE    PTSUNNY   79  73  83 CALM      30.13R
COLUMBIA       SUNNY     77  77 100 CALM      30.08R FOG
SHELBYVILLE    PTSUNNY   79  72  78 CALM      30.11R
$$

TNZ017-018-042-046-047-201500-
NORTHEAST TENNESSEE

CITY           SKY/WX    TMP DP  RH WIND       PRES   REMARKS
TRI CITIES     SUNNY     73  67  81 CALM      30.17R
ELIZABETHTON   SUNNY     73  66  78 VRB5      30.17R
$$

TNZ012-013-036-069-073-074-201500-
CENTRAL EAST TENNESSEE

CITY           SKY/WX    TMP DP  RH WIND       PRES   REMARKS
KNOXVILLE      SUNNY     76  66  71 NE3       30.13R
OAK RIDGE      SUNNY     75  69  81 CALM      30.15R
DOWNTOWN KNOXV SUNNY     77  72  83 CALM      30.12R
GATLINBURG     SUNNY     75  64  69 CALM      30.13R
MORRISTOWN     SUNNY     77  68  73 CALM      30.15R
JACKSBORO      SUNNY     75  70  83 CALM      30.18R
$$

TNZ083-085-099-201500-
SOUTHEAST TENNESSEE

CITY           SKY/WX    TMP DP  RH WIND       PRES   REMARKS
CHATTANOOGA    MOSUNNY   78  70  76 N5        30.12R
DAYTON         CLOUDY    73  73 100 NE3       30.12R FOG
$$

SKY/WX REPORTED AS FAIR MEANS FEW OR NO CLOUDS BELOW
12 THOUSAND FEET.





USA.gov is the U.S. government's official web portal to all federal, state and local government web resources and services.